SAS077 ESSA-ESSV

Flight info

Callsign SAS077
Flight time 0h 31m
Altitude 23000
Route BABAP T316 GOTAL
Aircraft A320/M-SDE3FGHIJ1RWXYZ/ALB1

Departure

Time 2026-04-25 16:07
Airport Stockholm-Arlanda Airport (ESSA)

Arrival

Time 2026-04-25 16:39
Airport Visby Airport (ESSV)
Time Latitude Longitude Altitude Speed Heading
2026-04-25 15:42 59.65378 17.93130 112 ft 0 kts 221°
2026-04-25 16:01 59.65387 17.93144 112 ft 4 kts 223°
2026-04-25 16:01 59.65405 17.93182 109 ft 4 kts 236°
2026-04-25 16:01 59.65416 17.93228 110 ft 4 kts 278°
2026-04-25 16:02 59.65412 17.93250 109 ft 2 kts 338°
2026-04-25 16:02 59.65410 17.93252 110 ft 0 kts 341°
2026-04-25 16:04 59.65416 17.93247 110 ft 3 kts 341°
2026-04-25 16:05 59.65445 17.93227 110 ft 6 kts 337°
2026-04-25 16:05 59.65494 17.93183 112 ft 9 kts 341°
2026-04-25 16:05 59.65618 17.93262 109 ft 13 kts 58°
2026-04-25 16:06 59.65685 17.93410 110 ft 15 kts 45°
2026-04-25 16:06 59.65762 17.93564 114 ft 16 kts 45°
2026-04-25 16:06 59.65841 17.93720 117 ft 20 kts 49°
2026-04-25 16:06 59.65928 17.94274 123 ft 76 kts 76°
2026-04-25 16:07 59.66110 17.95702 121 ft 134 kts 76°
2026-04-25 16:07 59.66275 17.96986 273 ft 147 kts 70°
2026-04-25 16:07 59.66571 17.99677 970 ft 154 kts 70°
2026-04-25 16:07 59.66833 18.01713 1662 ft 152 kts 69°
2026-04-25 16:08 59.67102 18.03764 2126 ft 163 kts 70°
2026-04-25 16:08 59.67388 18.06114 2438 ft 187 kts 71°
2026-04-25 16:08 59.67697 18.08782 2750 ft 210 kts 72°
2026-04-25 16:08 59.68036 18.11788 3132 ft 236 kts 72°
2026-04-25 16:09 59.68404 18.15102 3806 ft 252 kts 73°
2026-04-25 16:09 59.68771 18.18484 4781 ft 256 kts 72°
2026-04-25 16:09 59.69050 18.22010 5750 ft 266 kts 84°
2026-04-25 16:09 59.68618 18.25680 6617 ft 285 kts 113°
2026-04-25 16:10 59.67285 18.28668 7466 ft 299 kts 145°
2026-04-25 16:10 59.65389 18.30443 8364 ft 304 kts 157°
2026-04-25 16:10 59.63412 18.32029 9276 ft 308 kts 158°
2026-04-25 16:10 59.61406 18.33609 10008 ft 317 kts 159°
2026-04-25 16:11 59.59276 18.35284 10297 ft 339 kts 159°
2026-04-25 16:11 59.57052 18.37044 10891 ft 348 kts 159°
2026-04-25 16:11 59.54786 18.38858 11656 ft 353 kts 159°
2026-04-25 16:11 59.52530 18.40679 12425 ft 356 kts 159°
2026-04-25 16:12 59.50222 18.42540 13211 ft 359 kts 159°
2026-04-25 16:12 59.47890 18.44412 13939 ft 362 kts 159°
2026-04-25 16:12 59.45535 18.46297 14620 ft 366 kts 160°
2026-04-25 16:12 59.43973 18.47546 15048 ft 368 kts 160°
2026-04-25 16:13 59.40808 18.50073 15930 ft 372 kts 160°
2026-04-25 16:13 59.38388 18.51999 16603 ft 376 kts 160°
2026-04-25 16:13 59.35954 18.53935 17284 ft 379 kts 160°
2026-04-25 16:13 59.33491 18.55893 17936 ft 383 kts 160°
2026-04-25 16:14 59.31009 18.57864 18528 ft 386 kts 160°
2026-04-25 16:14 59.28499 18.59788 19134 ft 388 kts 165°
2026-04-25 16:14 59.25874 18.61019 19757 ft 387 kts 175°
2026-04-25 16:14 59.23222 18.61350 20365 ft 385 kts 185°
2026-04-25 16:15 59.20549 18.60962 20967 ft 386 kts 189°
2026-04-25 16:15 59.17855 18.60514 21560 ft 389 kts 189°
2026-04-25 16:15 59.15137 18.60082 22157 ft 392 kts 188°
2026-04-25 16:15 59.12395 18.59659 22581 ft 395 kts 188°
2026-04-25 16:16 59.09671 18.59245 22667 ft 387 kts 188°
2026-04-25 16:16 59.07051 18.58857 22676 ft 384 kts 188°
2026-04-25 16:16 59.04341 18.58441 22677 ft 395 kts 189°
2026-04-25 16:16 59.01583 18.58007 22668 ft 398 kts 189°
2026-04-25 16:17 58.98826 18.57569 22676 ft 399 kts 189°
2026-04-25 16:17 58.96056 18.57136 22674 ft 399 kts 189°
2026-04-25 16:17 58.93274 18.56705 22672 ft 399 kts 189°
2026-04-25 16:17 58.90504 18.56275 22664 ft 399 kts 189°
2026-04-25 16:18 58.87774 18.55850 22673 ft 399 kts 189°
2026-04-25 16:18 58.86841 18.55705 22671 ft 399 kts 189°
2026-04-25 16:18 58.82239 18.54989 22670 ft 398 kts 189°
2026-04-25 16:18 58.79468 18.54562 22647 ft 398 kts 189°
2026-04-25 16:19 58.76700 18.54142 22666 ft 398 kts 189°
2026-04-25 16:19 58.73928 18.53721 22667 ft 398 kts 189°
2026-04-25 16:19 58.71168 18.53301 22672 ft 398 kts 189°
2026-04-25 16:20 58.65672 18.52452 22658 ft 397 kts 189°
2026-04-25 16:20 58.62913 18.52026 22668 ft 397 kts 189°
2026-04-25 16:20 58.57391 18.51172 22618 ft 395 kts 189°
2026-04-25 16:21 58.54704 18.50761 22328 ft 388 kts 189°
2026-04-25 16:21 58.52038 18.50364 22038 ft 380 kts 189°
2026-04-25 16:21 58.49425 18.49979 21756 ft 375 kts 190°
2026-04-25 16:21 58.46829 18.49590 21464 ft 372 kts 190°
2026-04-25 16:22 58.44250 18.49200 21183 ft 370 kts 190°
2026-04-25 16:22 58.41694 18.48813 20746 ft 367 kts 190°
2026-04-25 16:22 58.39160 18.48429 20271 ft 364 kts 190°
2026-04-25 16:22 58.36636 18.48047 19784 ft 362 kts 190°
2026-04-25 16:23 58.34129 18.47668 19320 ft 360 kts 190°
2026-04-25 16:23 58.31639 18.47294 18858 ft 358 kts 190°
2026-04-25 16:23 58.29164 18.46923 18412 ft 355 kts 190°
2026-04-25 16:23 58.26739 18.46559 17970 ft 353 kts 190°
2026-04-25 16:24 58.24309 18.46057 17467 ft 347 kts 197°
2026-04-25 16:24 58.21995 18.44927 16971 ft 342 kts 202°
2026-04-25 16:24 58.19711 18.43686 16483 ft 340 kts 202°
2026-04-25 16:24 58.17436 18.42459 15986 ft 338 kts 201°
2026-04-25 16:25 58.15175 18.41246 15513 ft 337 kts 202°
2026-04-25 16:25 58.13681 18.40446 15203 ft 336 kts 201°
2026-04-25 16:25 58.10671 18.38842 14586 ft 334 kts 201°
2026-04-25 16:25 58.08431 18.37649 14113 ft 334 kts 201°
2026-04-25 16:26 58.06214 18.36470 13661 ft 333 kts 201°
2026-04-25 16:26 58.03982 18.35289 13187 ft 332 kts 201°
2026-04-25 16:26 58.01760 18.34114 12719 ft 330 kts 201°
2026-04-25 16:26 57.99555 18.32946 12262 ft 328 kts 201°
2026-04-25 16:27 57.97357 18.31780 11827 ft 326 kts 200°
2026-04-25 16:27 57.95178 18.30621 11399 ft 324 kts 200°
2026-04-25 16:27 57.93032 18.29483 10988 ft 322 kts 200°
2026-04-25 16:27 57.90874 18.28346 10569 ft 321 kts 200°
2026-04-25 16:28 57.88726 18.27216 10163 ft 319 kts 199°
2026-04-25 16:28 57.86591 18.26092 9765 ft 317 kts 199°
2026-04-25 16:28 57.84472 18.24978 9355 ft 315 kts 199°
2026-04-25 16:28 57.82360 18.23871 8916 ft 313 kts 199°
2026-04-25 16:29 57.80266 18.22777 8495 ft 312 kts 199°
2026-04-25 16:29 57.78176 18.21686 8090 ft 310 kts 199°
2026-04-25 16:29 57.76129 18.20604 7679 ft 308 kts 199°
2026-04-25 16:29 57.74075 18.19506 7266 ft 306 kts 199°
2026-04-25 16:30 57.72025 18.18409 6867 ft 305 kts 199°
2026-04-25 16:30 57.69989 18.17320 6444 ft 305 kts 198°
2026-04-25 16:30 57.67952 18.16232 5956 ft 301 kts 198°
2026-04-25 16:30 57.65972 18.15180 5454 ft 290 kts 198°
2026-04-25 16:31 57.64059 18.14171 4983 ft 281 kts 198°
2026-04-25 16:31 57.62196 18.13187 4514 ft 274 kts 198°
2026-04-25 16:31 57.60382 18.12226 4033 ft 268 kts 197°
2026-04-25 16:31 57.58605 18.11286 3562 ft 262 kts 197°
2026-04-25 16:32 57.56890 18.10382 3316 ft 248 kts 197°
2026-04-25 16:32 57.55296 18.09546 3199 ft 238 kts 197°
2026-04-25 16:32 57.53699 18.08833 3065 ft 233 kts 184°
2026-04-25 16:32 57.52135 18.09242 2923 ft 223 kts 155°
2026-04-25 16:33 57.50899 18.10810 2806 ft 208 kts 128°
2026-04-25 16:33 57.50172 18.13021 2706 ft 195 kts 106°
2026-04-25 16:33 57.49700 18.15349 2576 ft 189 kts 106°
2026-04-25 16:33 57.49240 18.17570 2441 ft 180 kts 106°
2026-04-25 16:34 57.49001 18.19748 2316 ft 166 kts 80°
2026-04-25 16:34 57.49345 18.21698 2245 ft 156 kts 51°
2026-04-25 16:34 57.50110 18.23032 2216 ft 150 kts 26°
2026-04-25 16:34 57.51075 18.23759 2219 ft 150 kts 19°
2026-04-25 16:35 57.52040 18.24442 2224 ft 150 kts 19°
2026-04-25 16:35 57.53014 18.25135 2213 ft 150 kts 19°
2026-04-25 16:35 57.53991 18.25833 2220 ft 150 kts 19°
2026-04-25 16:35 57.54964 18.26530 2220 ft 151 kts 19°
2026-04-25 16:36 57.55930 18.27221 2204 ft 142 kts 19°
2026-04-25 16:36 57.56226 18.27432 2141 ft 139 kts 19°
2026-04-25 16:36 57.57660 18.28453 1832 ft 130 kts 20°
2026-04-25 16:36 57.58497 18.29053 1653 ft 128 kts 20°
2026-04-25 16:37 57.59329 18.29645 1487 ft 128 kts 20°
2026-04-25 16:37 57.60159 18.30238 1312 ft 127 kts 20°
2026-04-25 16:37 57.60986 18.30830 1134 ft 127 kts 20°
2026-04-25 16:37 57.61817 18.31425 965 ft 128 kts 21°
2026-04-25 16:38 57.62644 18.32017 816 ft 127 kts 21°
2026-04-25 16:38 57.63460 18.32597 666 ft 125 kts 21°
2026-04-25 16:38 57.64273 18.33167 460 ft 125 kts 23°
2026-04-25 16:38 57.65080 18.33754 280 ft 124 kts 22°
2026-04-25 16:39 57.65873 18.34323 158 ft 114 kts 21°
2026-04-25 16:39 57.66377 18.34690 156 ft 34 kts 20°
2026-04-25 16:39 57.66486 18.34769 156 ft 15 kts 21°
2026-04-25 16:39 57.66576 18.34866 155 ft 12 kts 30°
2026-04-25 16:40 57.66595 18.34849 154 ft 2 kts 220°
2026-04-25 16:40 57.66564 18.34822 155 ft 8 kts 200°
2026-04-25 16:40 57.66504 18.34781 156 ft 10 kts 201°
2026-04-25 16:40 57.66425 18.34723 156 ft 14 kts 201°
2026-04-25 16:41 57.66327 18.34653 157 ft 16 kts 198°
2026-04-25 16:41 57.66292 18.34631 157 ft 17 kts 199°
2026-04-25 16:41 57.66038 18.34452 156 ft 15 kts 206°
2026-04-25 16:42 57.65967 18.34361 157 ft 10 kts 251°
2026-04-25 16:42 57.65979 18.34246 159 ft 9 kts 296°
2026-04-25 16:42 57.66004 18.34132 159 ft 10 kts 289°
2026-04-25 16:42 57.65981 18.34023 159 ft 10 kts 218°
2026-04-25 16:43 57.65969 18.33969 159 ft 3 kts 308°
2026-04-25 16:43 57.65990 18.33947 159 ft 4 kts 335°
2026-04-25 16:43 57.66008 18.33933 159 ft 1 kts 337°
2026-04-25 16:43 57.66017 18.33924 159 ft 2 kts 335°
2026-04-25 16:44 57.66019 18.33923 159 ft 0 kts 335°